Find Palapa C1

NORAD ID: 23779 Int'l Des: 1996-006 Owner: SINDO/PSN Country: ID operational
HEOCIRCULAR

实时位置

正在加载3D地球...

关于 Palapa C1

正在加载描述...

即将过境

Passes for default location (London). Set your location on the main map for personalized predictions.

高度历史

Loading altitude history...

两行轨道根数

1 23779U 96006A 26105.85165312 -.00000069 00000-0 00000-0 0 9990
2 23779 10.7337 46.4039 0004509 207.1931 164.3194 0.99588811110232
Epoch: Apr 15, 2026 • Age: 18 hours

当前状态

高度 35974.8 km
速度 3.07 km/s
星下点 -10.61°S, 94.32°W
发射日期 Feb 1, 1996
运行时间 30.2 years
类型 other

技术详情

分类 Payload
质量 2989.00 kg
干质量 1600.00 kg
总质量 2989.00 kg
长度 4.50 m
直径 2.80 m
跨度 20.00 m
形状 Box + 2 Pan
制造商 HSES
平台类型 HS-601
阶段状态 Unknown Active Status
所有者/国家 SINDO/PSN/ID

Most Searched